Voltar ao catálogo

SL-16 DEB

AtivoLEO
NORAD 22600·DEBRIS·🇷🇺 Russia

Lançado Mar 26, 1993 de Baikonur Cosmodrome

Loading…

Próximas Passagens (próximas 24 horas)

TLE

AtualizadoSource: Space-Track

Época: Sep 14, 2026, 14:20 UTC

1 22600U 93016J   26257.59745547  .00000011  00000-0  45806-4 0  9996
2 22600  70.9168 348.2865 0156733  84.7217 338.9372 13.82516460688017

Acompanhe SL-16 DEB em tempo real com AllMySat

Download on the App Store